[[{"header":{"parameterUnit":"m.s-1","parameterCategory":1,"la1":30.2991,"la2":30.254,"lo1":-89.0895,"lo2":-89.0444,"dy":0.0017,"dx":0.0017,"nx":28,"ny":28,"refTime":"2024-07-26T21:00:00:Z","depth":0,"parameterNumber":2,"parameterNumberName":"U-component_of_WINDS"},"data":[0,0,0,0,0,0,0,0,0,0,0,0,0,0,0,0,0,0,0,0,0,0,0,0,0,0,0,0,0,0,0,0,0,0,0,0,0,0,0,0,0,0,0,0,0,0,0,0,0,0,0,0,0,0,0,0,0,0,0.5271,0.5272,0,0.5356,0.5357,0.5358,0.5394,0.5394,0.5393,0.5393,0.5485,0.5487,0.549,0,0,0,0,0,0,0,0,0,0,0,0,0,0.5144,0.5146,0.5271,0.5272,0.5273,0.5356,0.5357,0.5358,0.5394,0.5394,0.5393,0.5393,0.5484,0.5487,0.549,0,0,0,0,0,0,0,0,0,0,0,0,0,0.5211,0.5146,0.5271,0.5301,0.5304,0.5355,0.5357,0.5358,0.5394,0.5394,0.5393,0.5393,0.5483,0.5486,0.549,0.5519,0,0,0.5502,0.5504,0,0,0,0,0,0,0,0,0.5207,0.5215,0.5295,0.5299,0.5303,0.5364,0.5345,0.5412,0.5394,0.536,0.5393,0.5393,0.5445,0.5452,0.5468,0.5523,0.5527,0.5502,0.5505,0.5506,0.5508,0,0,0,0,0,0,0,0.5202,0.5212,0.5305,0.5297,0.5301,0.5311,0.532,0.5358,0.5403,0.5363,0.5366,0.5375,0.5447,0.5465,0.5471,0.5529,0.5502,0.5506,0.5508,0.551,0.561,0.5611,0,0,0,0,0,0,0.5192,0.5208,0.5302,0.5307,0.5253,0.5314,0.5324,0.5345,0.5403,0.5411,0.5375,0.5376,0.5458,0.5466,0.5474,0.5511,0.5506,0.551,0.5512,0.561,0.5611,0.5611,0,0,0,0,0,0,0.5189,0.52,0.5299,0.5258,0.5272,0.5316,0.5339,0.5346,0.5364,0.5412,0.542,0.5385,0.5458,0.5469,0.5507,0.5515,0.5512,0.5515,0.561,0.561,0.5611,0.5585,0,0,0,0,0,0,0.5185,0.5199,0.521,0.5258,0.5273,0.5329,0.5339,0.5348,0.537,0.5373,0.5423,0.5431,0.5459,0.5501,0.5511,0.552,0.5518,0.5609,0.561,0.5611,0.5586,0.5585,0.5584,0,0,0,0,0,0.5181,0.52,0.521,0.5221,0.5288,0.5329,0.5338,0.5368,0.5371,0.5382,0.5413,0.543,0.5512,0.5505,0.5516,0.5526,0.5609,0.561,0.5611,0.5586,0.5585,0.5584,0,0,0,0,0,0,0.5153,0.5207,0.5219,0.5254,0.5286,0.5335,0.5351,0.5367,0.54,0.5401,0.5439,0.545,0.5485,0.551,0.55,0.5557,0.5562,0.5565,0.5539,0.5539,0.5538,0.5532,0.5522,0,0,0,0,0,0.5151,0.5179,0.5225,0.5252,0.5268,0.5306,0.5326,0.5346,0.5381,0.5396,0.5429,0.5465,0.5498,0.552,0.5554,0.5589,0.5601,0.5602,0.5601,0.56,0.5603,0.5623,0.5624,0.5614,0.5614,0.5614,0,0,0.5147,0.518,0.5196,0.5247,0.5275,0.5304,0.5318,0.5348,0.537,0.5401,0.5439,0.5464,0.5506,0.5543,0.5561,0.5565,0.5608,0.5601,0.56,0.5603,0.5624,0.5625,0.5625,0.5614,0.5614,0.5614,0,0,0.5155,0.5183,0.5208,0.5235,0.5275,0.5301,0.5306,0.5352,0.537,0.5408,0.5431,0.5459,0.5516,0.5545,0.5567,0.5584,0.5601,0.5594,0.5591,0.561,0.561,0.5611,0.5617,0.5619,0.5596,0.5596,0.5596,0,0.5146,0.5189,0.5219,0.5248,0.527,0.5297,0.5323,0.5348,0.5398,0.5413,0.5416,0.5488,0.5518,0.5562,0.5565,0.5582,0.5591,0.5589,0.5608,0.5609,0.561,0.5616,0.5618,0.5595,0.5595,0.5595,0.5595,0,0.5176,0.5205,0.5221,0.5267,0.529,0.5318,0.5352,0.5373,0.5391,0.5416,0.5454,0.5491,0.5532,0.5544,0.5562,0.559,0.5591,0.56,0.5606,0.5609,0.5616,0.5618,0.5593,0.5594,0.5594,0.5594,0,0,0.517,0.523,0.5235,0.5256,0.5302,0.5327,0.5355,0.5394,0.541,0.5444,0.5469,0.5516,0.5525,0.555,0.5572,0.5588,0.5599,0.5596,0.5598,0.5595,0.5631,0.5624,0.5626,0.561,0.5611,0.5611,0.5628,0,0.5184,0.5234,0.5261,0.5301,0.5329,0.5354,0.5379,0.541,0.5434,0.5462,0.549,0.5522,0.5531,0.5546,0.5564,0.5594,0.5607,0.5593,0.5635,0.5636,0.5623,0.5629,0.5622,0.5635,0.563,0.5631,0.5631,0,0.5207,0.5238,0.528,0.5322,0.5335,0.5356,0.5393,0.5419,0.5456,0.5472,0.5499,0.552,0.5552,0.5554,0.5599,0.5589,0.5608,0.5625,0.5626,0.5632,0.5634,0.5635,0.564,0.5642,0.5635,0.5635,0.5635,0,0.5198,0.525,0.5282,0.5299,0.5349,0.5363,0.5385,0.5421,0.5442,0.5475,0.5489,0.5526,0.5546,0.5574,0.5605,0.5604,0.5646,0.5652,0.5662,0.5661,0.567,0.5669,0.5679,0.5681,0.5681,0.5681,0.5681,0,0.5211,0.5235,0.5278,0.5298,0.5326,0.5357,0.5384,0.5408,0.544,0.5465,0.549,0.5513,0.5552,0.5581,0.5605,0.5638,0.5647,0.5662,0.5668,0.566,0.5658,0.5673,0.5673,0.5682,0.5682,0.5682,0.5681,0,0.5206,0.5235,0.5271,0.5315,0.5326,0.5345,0.5383,0.5403,0.5428,0.5459,0.5469,0.5508,0.5542,0.5575,0.5623,0.5639,0.5672,0.568,0.5659,0.5662,0.567,0.5669,0.569,0.5694,0.5694,0.5694,0.5694,0,0.5212,0.5231,0.5276,0.5294,0.5314,0.5343,0.5364,0.5395,0.5416,0.5458,0.5474,0.551,0.554,0.5594,0.5628,0.5664,0.5673,0.5678,0.5679,0.567,0.5673,0.5672,0.5674,0.5677,0.5677,0.5677,0.5677,0,0.522,0.5233,0.5262,0.5295,0.5319,0.5348,0.5377,0.5391,0.5428,0.545,0.5485,0.5508,0.5555,0.5591,0.563,0.5654,0.5672,0.5676,0.568,0.5672,0.5659,0.5666,0.5657,0.5676,0.5676,0.5676,0.5676,0.5676,0.5221,0.5238,0.5272,0.5303,0.5328,0.5355,0.5375,0.5402,0.5431,0.547,0.5487,0.5522,0.5558,0.5612,0.5636,0.5664,0.5669,0.5675,0.5676,0.5677,0.5675,0.5654,0.5672,0.5672,0.5672,0.5672,0.5672,0,0.523,0.5252,0.528,0.532,0.5344,0.5357,0.539,0.541,0.5439,0.547,0.5499,0.5539,0.5573,0.5609,0.5645,0.5661,0.567,0.567,0.5669,0.5674,0.5669,0.5662,0.5662,0.5662,0.5662,0.5662,0.5662,0.5662,0.5237,0.5268,0.5285,0.5328,0.5351,0.5384,0.5402,0.5427,0.5451,0.5494,0.5522,0.5544,0.5577,0.5616,0.5648,0.5658,0.567,0.5667,0.5679,0.5674,0.5675,0.5675,0.5669,0.567,0.567,0.5682,0.5682,0.5682]},{"header":{"parameterUnit":"m.s-1","parameterCategory":1,"la1":30.2991,"la2":30.254,"lo1":-89.0895,"lo2":-89.0444,"dy":0.0017,"dx":0.0017,"nx":28,"ny":28,"refTime":"2024-07-26T21:00:00:Z","depth":0,"parameterNumber":3,"parameterNumberName":"V-component_of_WINDS"},"data":[0,0,0,0,0,0,0,0,0,0,0,0,0,0,0,0,0,0,0,0,0,0,0,0,0,0,0,0,0,0,0,0,0,0,0,0,0,0,0,0,0,0,0,0,0,0,0,0,0,0,0,0,0,0,0,0,0,0,3.6326,3.6326,0,3.6349,3.6349,3.6349,3.6384,3.6385,3.6385,3.6386,3.6407,3.6407,3.6407,0,0,0,0,0,0,0,0,0,0,0,0,0,3.6311,3.6311,3.6326,3.6326,3.6326,3.6348,3.6349,3.6349,3.6384,3.6385,3.6385,3.6386,3.6407,3.6407,3.6407,0,0,0,0,0,0,0,0,0,0,0,0,0,3.6324,3.6311,3.6326,3.6347,3.6349,3.6348,3.6349,3.6349,3.6384,3.6385,3.6386,3.6387,3.6407,3.6407,3.6407,3.6388,0,0,3.6407,3.6407,0,0,0,0,0,0,0,0,3.6323,3.6324,3.6343,3.6345,3.6347,3.6365,3.6351,3.6362,3.6384,3.637,3.6386,3.6387,3.6392,3.6393,3.6395,3.6389,3.639,3.6407,3.6407,3.6407,3.6407,0,0,0,0,0,0,0,3.6322,3.6323,3.6335,3.6343,3.6346,3.6354,3.6357,3.6353,3.6375,3.6372,3.6374,3.6376,3.6393,3.6395,3.6396,3.639,3.6407,3.6407,3.6407,3.6407,3.6368,3.6367,0,0,0,0,0,0,3.6318,3.6322,3.6334,3.6335,3.6337,3.6354,3.6357,3.6358,3.6376,3.6379,3.6376,3.6378,3.6395,3.6396,3.6397,3.6375,3.6407,3.6407,3.6407,3.6369,3.6368,3.6367,0,0,0,0,0,0,3.6318,3.6319,3.6333,3.633,3.6332,3.6353,3.6354,3.6358,3.636,3.6379,3.6383,3.6374,3.6396,3.6397,3.639,3.6376,3.6407,3.6407,3.637,3.6369,3.6367,3.6331,0,0,0,0,0,0,3.6317,3.6319,3.6312,3.6329,3.6332,3.6326,3.6353,3.6358,3.636,3.6363,3.6378,3.6381,3.6396,3.639,3.639,3.6377,3.6407,3.6371,3.6369,3.6368,3.6334,3.6329,3.6325,0,0,0,0,0,3.6317,3.6301,3.6311,3.6313,3.6324,3.6325,3.6327,3.6345,3.6359,3.6352,3.6364,3.6381,3.6378,3.6389,3.6389,3.6376,3.6372,3.637,3.6368,3.6336,3.633,3.6325,0,0,0,0,0,0,3.628,3.6303,3.6316,3.6305,3.6313,3.6331,3.6323,3.6338,3.6342,3.6345,3.6367,3.637,3.636,3.6367,3.6379,3.6358,3.6378,3.6375,3.6353,3.6348,3.6343,3.6341,3.6407,0,0,0,0,0,3.6271,3.6271,3.6291,3.6279,3.6283,3.6302,3.6303,3.6317,3.6326,3.6329,3.6341,3.6348,3.6349,3.6349,3.6351,3.6335,3.6339,3.6327,3.6322,3.6318,3.6315,3.6307,3.6302,3.6359,3.6359,3.6359,0,0,3.6252,3.6265,3.6263,3.6272,3.628,3.6278,3.6305,3.6302,3.63,3.6328,3.6322,3.6331,3.6341,3.6329,3.6325,3.6335,3.6301,3.6315,3.6312,3.6312,3.6305,3.6299,3.6294,3.6358,3.6358,3.6358,0,0,3.6217,3.6226,3.6218,3.6225,3.6237,3.625,3.6248,3.6264,3.6271,3.6265,3.6286,3.6285,3.6286,3.6292,3.6295,3.6261,3.6277,3.6261,3.6237,3.6229,3.6224,3.622,3.6208,3.6203,3.6259,3.6259,3.6259,0,3.6191,3.619,3.6211,3.6207,3.621,3.6236,3.6227,3.6233,3.6245,3.6246,3.6258,3.6259,3.6268,3.6258,3.625,3.6251,3.6249,3.6259,3.6223,3.6219,3.6216,3.6204,3.62,3.6257,3.6257,3.6257,3.6257,0,3.6158,3.6157,3.6148,3.616,3.6162,3.6155,3.6175,3.6174,3.6188,3.6199,3.6193,3.6204,3.6208,3.6207,3.622,3.6198,3.6204,3.6219,3.624,3.6208,3.6198,3.6193,3.6254,3.6255,3.6255,3.6256,0,0,3.61,3.6123,3.6119,3.6125,3.614,3.6139,3.6133,3.6138,3.6137,3.6144,3.6139,3.6139,3.6153,3.6157,3.617,3.6163,3.6135,3.6179,3.618,3.617,3.6112,3.61,3.6095,3.6146,3.6145,3.6144,3.6111,0,3.6067,3.6059,3.6078,3.6065,3.6064,3.6088,3.6083,3.6092,3.6102,3.6102,3.6114,3.6113,3.6132,3.6134,3.6128,3.614,3.6124,3.6143,3.6141,3.614,3.6137,3.6089,3.6077,3.6045,3.6107,3.6106,3.6106,0,3.6027,3.6032,3.602,3.6035,3.6036,3.6031,3.6037,3.6037,3.6046,3.6054,3.6058,3.6074,3.6069,3.6089,3.6081,3.6094,3.6094,3.61,3.6099,3.6099,3.6121,3.6087,3.6035,3.603,3.6099,3.61,3.61,0,3.5985,3.5989,3.5982,3.5986,3.6004,3.6,3.6007,3.6018,3.6019,3.6024,3.6025,3.6029,3.6031,3.6033,3.605,3.6063,3.604,3.6062,3.6046,3.6046,3.604,3.604,3.5986,3.6041,3.6041,3.6041,3.6041,0,3.5946,3.5937,3.5964,3.5959,3.595,3.5971,3.5961,3.597,3.598,3.5977,3.5998,3.5995,3.6017,3.6016,3.6029,3.6021,3.6022,3.6027,3.6031,3.6025,3.6024,3.6025,3.6028,3.604,3.604,3.604,3.604,0,3.5897,3.5915,3.5909,3.5926,3.5931,3.5923,3.5938,3.5934,3.5946,3.5942,3.5942,3.5961,3.5961,3.5978,3.5981,3.599,3.5975,3.5983,3.5972,3.5975,3.5958,3.5959,3.5902,3.5896,3.5955,3.5954,3.5954,0,3.5871,3.5864,3.5882,3.5882,3.5888,3.5888,3.589,3.591,3.5911,3.5922,3.5916,3.5918,3.5921,3.5919,3.5932,3.5935,3.5943,3.5923,3.5943,3.5937,3.5941,3.5941,3.5941,3.5918,3.5917,3.5917,3.5916,0,3.5821,3.5831,3.5833,3.5838,3.584,3.5845,3.5851,3.585,3.5872,3.5872,3.5873,3.5875,3.5878,3.5879,3.5884,3.5891,3.5907,3.591,3.5906,3.59,3.5894,3.5896,3.596,3.5911,3.5911,3.5912,3.5912,3.5912,3.5783,3.5778,3.579,3.5792,3.5799,3.5804,3.5801,3.5813,3.5814,3.5819,3.5831,3.5829,3.5839,3.5847,3.5852,3.5851,3.5861,3.5855,3.5854,3.5852,3.5849,3.5894,3.5852,3.5852,3.5852,3.5852,3.5852,0,3.5734,3.5743,3.5745,3.5753,3.5754,3.577,3.5778,3.5777,3.5776,3.5783,3.5786,3.5786,3.5787,3.5801,3.5803,3.5799,3.5807,3.5799,3.5799,3.5801,3.584,3.5843,3.5793,3.5793,3.5793,3.5793,3.5793,3.5793,3.5709,3.5703,3.5713,3.5709,3.5718,3.5717,3.572,3.5725,3.5731,3.5731,3.5732,3.5741,3.5751,3.5754,3.5756,3.576,3.5759,3.5749,3.5756,3.5792,3.5798,3.5803,3.5806,3.5749,3.5749,3.5716,3.5716,3.5716]}]]